Погода в Йосу

Южная Корея     34°45′41″N   127°39′46″E
темп.,
°C
ветер,
м/с
пор.,
м/с
влажн.,
%
обл.,
%
осадки,
мм/ч
давл.,
гПа
погр.,
м
27 июля, вт
вт2700:00+25св34830 0.0 1004144
03:00+24св34830 0.0 1003144
06:00+24ссв45820 0.0 1003174
09:00+26св45740 0.0 1004319
12:00+28в35660 0.0 1003520
15:00+29юв45690 0.0 1002548
18:00+28вюв56770 0.0 1001362
21:00+26вюв36890 0.0 1003184
28 июля, ср
ср2800:00+25св12900 0.0 1002159
03:00+25ссв22900 0.0 1002137
06:00+24ссв34920 0.0 1003180
09:00+26св33770 0.0 1003339
12:00+28юв23692 0.0 1003463
15:00+29юв44704 0.0 1001506
18:00+28юв357699 0.0 1001320
21:00+26вюв1188100 0.0 100236
29 июля, чт
чт2900:00+25всв1188100 0.2 100252
03:00+25в2390100 0.3 1002151
06:00+25в2290100 0.0 1002183
09:00+27в2375100 0.0 1002471
12:00+28юв337187 0.0 1001545
15:00+28ю4467100 0.0 1001465
18:00+27ююз3376100 0.0 1000323
21:00+25ююз2288100 0.0 100174
30 июля, пт
пт3000:00+25юз1287100 0.0 1001125
03:00+24з0187100 0.0 1000149
06:00+25всв118646 0.0 1000121
09:00+27вюв237529 0.0 1000438
12:00+28ююв458019 0.1 1000615
15:00+29ю457889 0.1 999705
18:00+28ююв45845 0.1 999492
21:00+26ю349142 0.4 999119
31 июля, сб
сб3100:00+26ююз359113 0.8 999114
03:00+26ююз23915 1.8 99877
06:00+26вюв22915 0.4 99851
09:00+27в1185100 0.6 999277
12:00+29ю337960 0.2 998489
15:00+29ююз666812 0.3 998661
18:00+28юз67770 0.0 998479
21:00+26юз35872 0.0 999178